This is the latest recevied weather packets stored in our database for station/object OE3MHU-13. If no packets are shown the sender has not sent any weather packets the latest 10 day(s).
| Time | Temp. | Humidity | Pressure | Rain* | Wind** | Luminosity | Snow |
|---|---|---|---|---|---|---|---|
| 1777733711 | 27.22° C | 27% | 1022.1 hPa | 0 mm | - | - | - |
| 1777733405 | 27.22° C | 28% | 1022.2 hPa | 0 mm | - | - | - |
| 1777733099 | 27.22° C | 29% | 1022.3 hPa | 0 mm | - | - | - |
| 1777732793 | 27.22° C | 29% | 1022.2 hPa | 0 mm | - | - | - |
| 1777732487 | 27.22° C | 29% | 1022.3 hPa | 0 mm | - | - | - |
| 1777732181 | 27.78° C | 28% | 1022.3 hPa | 0 mm | - | - | - |
| 1777731875 | 27.78° C | 28% | 1022.3 hPa | 0 mm | - | - | - |
| 1777731569 | 27.78° C | 28% | 1022.4 hPa | 0 mm | - | - | - |
| 1777731264 | 27.78° C | 28% | 1022.5 hPa | 0 mm | - | - | - |
| 1777731094 | 28.33° C | 26% | 1022.4 hPa | 0 mm | - | - | - |
| 1777731082 | 27.22° C | 28% | 1022.5 hPa | 0 mm | - | - | - |
| 1777730363 | 28.89° C | 26% | 1022.5 hPa | 0 mm | - | - | - |
| 1777730062 | 28.89° C | 27% | 1022.5 hPa | 0 mm | - | - | - |
| 1777729761 | 28.89° C | 27% | 1022.7 hPa | 0 mm | - | - | - |
| 1777729461 | 28.33° C | 27% | 1022.7 hPa | 0 mm | - | - | - |
| 1777729161 | 28.33° C | 29% | 1022.8 hPa | 0 mm | - | - | - |
| 1777728861 | 27.78° C | 29% | 1022.8 hPa | 0 mm | - | - | - |
| 1777728561 | 27.78° C | 28% | 1022.9 hPa | 0 mm | - | - | - |
| 1777728261 | 27.78° C | 28% | 1023 hPa | 0 mm | - | - | - |
| 1777727959 | 27.78° C | 29% | 1023 hPa | 0 mm | - | - | - |
| 1777727657 | 27.22° C | 30% | 1023 hPa | 0 mm | - | - | - |
| 1777727356 | 27.22° C | 28% | 1023.2 hPa | 0 mm | - | - | - |
| 1777727058 | 27.22° C | 29% | 1023.2 hPa | 0 mm | - | - | - |
| 1777726755 | 27.22° C | 28% | 1023.3 hPa | 0 mm | - | - | - |
| 1777726455 | 27.22° C | 29% | 1023.4 hPa | 0 mm | - | - | - |
* Rain latest hour (hover to see other rain measurements)
** Current wind speed in m/s (hover to see current wind gust speed)